Voltar ao catálogo

STARLINK-5350

AtivoComunicaçõesVLEO
NORAD 56419·PAYLOAD·🇺🇸 United States

Lançado May 4, 2023 de Cape Canaveral Space Force Station

Loading…

Próximas Passagens (próximas 24 horas)

TLE

AtualizadoSource: CelesTrak SupGP

Época: Sep 14, 2026, 21:02 UTC

1 56419C 23061AX  26257.87687500  .00001558  00000+0  56423-4 0  2579
2 56419  42.9998 198.7263 0001346 254.1731 222.6191 15.27573386    12

Acompanhe STARLINK-5350 em tempo real com AllMySat

Download on the App Store